Location: Newark
(21.1200°N, 73.4000°E)
Time: 05:32:27
(UTC+00:00)

Courier 1B Rocket - Pass Details

Date: 22 January 2020
Orbit: 920 x 1202 km, 28.2° (Epoch: 17 February)

Event Time Altitude Azimuth Distance (km) Brightness Sun altitude
Rises 08:28:03 0° 269° (W) 3,834 8.4 45.7°
Reaches altitude 10° 08:30:56 10° 274° (W) 2,835 7.8 45.4°
Maximum altitude 08:37:36 52° 349° (N) 1,202 5.8 44.7°
Drops below altitude 10° 08:43:52 10° 66° (ENE) 2,661 7.0 44.0°
Sets 08:46:30 0° 71° (ENE) 3,582 7.6 43.7°
